Regional Weather Roundup
Issued by NWS

Home | Current Version | Previous Version | Text Only | Print | Product List | Glossary Off
Versions: 1 2 3 4 5 6 7 8 9 10 11 12 13 14 15 16 17 18 19 20 21 22 23 24 25 26 27 28 29 30 31 32 33 34 35 36 37 38 39 40 41 42 43 44 45 46 47 48 49 50

000
ASUS43 KLOT 280604
RWRIL

ILLINOIS REGIONAL WEATHER ROUNDUP
NATIONAL WEATHER SERVICE CHICAGO/ROMEOVILLE IL
100 AM CDT SAT MAY 28 2016

NOTE: "FAIR" INDICATES FEW OR NO CLOUDS BELOW 12,000 FEET WITH NO
SIGNIFICANT WEATHER AND/OR OBSTRUCTIONS TO VISIBILITY.

* THESE STATIONS ARE NOT UNDER NWS QUALITY CONTROL. THEY ALSO MAY NOT
  REPORT WEATHER SUCH AS PRECIPITATION OR FOG.

ILZ001-002-007-009-015-016-024-280700-
NORTHWEST ILLINOIS

CITY           SKY/WX    TMP DP  RH WIND       PRES   REMARKS
MOLINE         MOCLDY    71  66  84 S16G23    29.75F
6HR MIN TEMP:  71; 6HR MAX TEMP:  79; 6HR PCP:  0.10;

STERLING*      CLOUDY    69  68  96 SE9       29.80F
$$

ILZ003-004-008-010-011-017-018-280700-
NORTH CENTRAL ILLINOIS

CITY           SKY/WX    TMP DP  RH WIND       PRES   REMARKS
ROCKFORD       CLOUDY    69  66  90 S12       29.84F
6HR MIN TEMP:  69; 6HR MAX TEMP:  78; 6HR PCP:  0.02;

FREEPORT*      LGT RAIN  68  66  94 SE15G22   29.81F
ROCHELLE*      CLOUDY    69  66  92 S13       29.84F
$$

ILZ005-006-012>014-019>023-280700-
NORTHEAST ILLINOIS

CITY           SKY/WX    TMP DP  RH WIND       PRES   REMARKS
CHICAGO-OHARE  CLOUDY    69  65  86 S10       29.86F
6HR MIN TEMP:  68; 6HR MAX TEMP:  78; 6HR PCP:  0.02;

CHICAGO-MIDWAY CLOUDY    71  64  78 S9        29.86F
6HR MIN TEMP:  71; 6HR MAX TEMP:  79; 6HR PCP:  0.08;

AURORA         CLOUDY    70  65  84 S12       29.85F
6HR MIN TEMP:  70; 6HR MAX TEMP:  76; 6HR PCP: TRACE;

LANSING*       CLOUDY    69  64  82 S9        29.89S
WAUKEGAN       PTCLDY    68  66  93 S12       29.85F
6HR MIN TEMP:  65; 6HR MAX TEMP:  71; 6HR PCP:  0.03;

DUPAGE AIRPORT CLOUDY    69  63  81 S12       29.85F
6HR MIN TEMP:  68; 6HR MAX TEMP:  74; 6HR PCP:  0.01;

WHEELING       CLOUDY    69  65  86 S12       29.87F
6HR MIN TEMP:  69; 6HR MAX TEMP:  77; 6HR PCP:  0.03;

NORTHERLY ISL    N/A     71  63  75 S9          N/A
NORTHERLY ISL    N/A     71  63  75 S9          N/A
$$

LMZ740>746-280700-
SOUTHERN LAKE MICHIGAN

STATION/POSITION SKY/WX   TEMP    WIND        PRES    VSBY  WAVE
                          AIR SEA DIR/SP/G                  HT/PER
                          (F)     (DEG/KT/KT) (MB)    (MI)  (FT/S)
SOUTHERN BUOY              56 50  150/ 10/ 12 1011.7          1/ 3
WILMETTE HARBOR            61 54  190/  8/ 10   N/A           1/ 3
HARRISON CRIB              69     190/ 16/ 16   N/A
BURNHAM HARBOR             70     200/  6/ 13   N/A
CALUMET HARBOR             71     180/  9/ 14 1011.4F
BURNS HARBOR               70     180/  9/ 22 1012.9F
MICHIGAN CITY              71     160/ 11/ 13   N/A
MICHIGAN CITY 6N           66 58  200/ 10/ 12   N/A           1/ 2
ST. JOSEPH                 66 62  170/  8/ 10   N/A           1
$$

ILZ025>027-034>036-040-047-049-050-058-095>099-280700-
WEST-CENTRAL ILLINOIS

CITY           SKY/WX    TMP DP  RH WIND       PRES   REMARKS
QUINCY         CLOUDY    68  66  93 S10       29.78S
MACOMB*        CLOUDY    69  66  93 S15G21    29.80F
PITTSFIELD*    CLOUDY    69  68  96 S7        29.82S
$$

ILZ028>032-037-038-041>044-048-051>054-059>061-280700-
CENTRAL ILLINOIS

CITY           SKY/WX    TMP DP  RH WIND       PRES   REMARKS
BLOOMINGTON    CLOUDY    70  68  93 S15       29.86F
DECATUR        CLOUDY    70  65  84 SE10      29.85F
PEORIA         CLOUDY    69  66  90 S9        29.81F
6HR MIN TEMP:  69; 6HR MAX TEMP:  77; 6HR PCP:  0.07;

LINCOLN*       CLOUDY    70  67  90 S9        29.84F
SPRINGFIELD    CLOUDY    72  67  84 S10       29.83S
6HR MIN TEMP:  71; 6HR MAX TEMP:  76; 6HR PCP: TRACE;

TAYLORVILLE    NOT AVBL
$$

ILZ033-039-045-046-055>057-062-063-280700-
EAST-CENTRAL ILLINOIS

CITY           SKY/WX    TMP DP  RH WIND       PRES   REMARKS
CHAMPAIGN      CLOUDY    69  66  90 SE10      29.89F
MATTOON        CLOUDY    69  64  84 SE9       29.88F
$$

ILZ079-100>102-280700-
SOUTHWEST ILLINOIS

CITY           SKY/WX    TMP DP  RH WIND       PRES   REMARKS
ALTON          CLOUDY    70  66  87 S13G18    29.84S
BELLEVILLE     CLOUDY    71  71  99 E9        29.84S
CAHOKIA*       CLOUDY    72  66  81 S7        29.84S
SPARTA*        CLOUDY    70  66  87 S9        29.88S
$$

ILZ064>066-069>071-074>076-080>082-084>086-088>090-092>094-280700-
SOUTH-CENTRAL ILLINOIS

CITY           SKY/WX    TMP DP  RH WIND       PRES   REMARKS
CARBONDALE     CLOUDY    70  66  87 S12       29.89S
6HR MIN TEMP:  69; 6HR MAX TEMP:  71;

EFFINGHAM*     CLOUDY    69  67  93 SE9       29.91S
MT. VERNON     CLOUDY    72  63  73 S10       29.90S
SALEM*         CLOUDY    71  66  84 SE6       29.89R
$$

ILZ067-068-072-073-078-083-087-091-280700-
SOUTHEAST ILLINOIS

CITY           SKY/WX    TMP DP  RH WIND       PRES   REMARKS
LAWRENCEVILLE  CLOUDY    75  65  70 S10       29.93R
FLORA*         CLOUDY    70  66  86 S9        29.90S
HARRISBURG*    PTCLDY    71  67  85 SE7       29.92S
ROBINSON*      CLOUDY    69  64  82 S7        29.93S
$$

ABBREVIATIONS USED IN REMARKS
   TC - TEMPERATURE IN CELSIUS
  WCI - WIND CHILL INDEX
   HX - HEAT INDEX
  VSB - VISIBILITY
$$





USA.gov is the U.S. government's official web portal to all federal, state and local government web resources and services.